User: anonymous   Login
Location: Erlenbrunn
(49.1717°N, 7.6142°E)
Time: 21:18:21
(UTC+00:00)
Language:

Cosmos 2322 Rocket - Orbit

View from above orbital plane
View from above orbital plane
View from above satellite
View from above satellite

Ground track
Ground track

The orbit data is extracted from the following two-line orbital elements,

1 23705U 95058B   21058.47936584 -.00000150  00000-0 -52519-4 0  9990
2 23705  71.0198  73.8720 0011249  28.3516 331.8217 14.15148711308058
Epoch (UTC): 27 February 2021 11:30:17
Eccentricity: 0.0011249
inclination: 71.0198°
perigee height: 833 km
apogee height: 850 km
right ascension of ascending node: 73.8720°
argument of perigee: 28.3516°
revolutions per day: 14.15148711
mean anomaly at epoch: 331.8217°
orbit number at epoch: 30805

The dashed part of the orbit path shows where the satellite is in the earth's shadow,  

DLR